#timestamp,LO_Frequency,Hit,Temp,Hum 
1478379615.3,286047146.4,Y,0.0,0.0
1478379635.2,286047143.3,Y,0.0,0.0
1478379655.9,286047140.7,Y,0.0,0.0
1478379675.7,286047138.5,Y,0.0,0.0
1478379695.6,286047135.5,Y,0.0,0.0
1478379715.4,286047128.5,Y,0.0,0.0
1478379735.3,286047123.9,N,0.0,0.0
1478379755.1,286047123.3,N,0.0,0.0
1478379756.0,286047123.3,N,0.0,0.0
1478379775.8,286047125.9,N,0.0,0.0
1478379795.7,286047122.9,N,0.0,0.0
1478379815.5,286047125.3,N,0.0,0.0
1478379835.3,286047123.1,N,0.0,0.0
1478379855.1,286047123.2,N,0.0,0.0
1478379875.9,286047126.0,N,0.0,0.0
1478379895.7,286047123.0,N,0.0,0.0
1478379915.5,286047123.4,N,0.0,0.0
1478379935.4,286047129.2,N,0.0,0.0
1478379955.2,286047126.5,N,0.0,0.0
1478379975.0,286047120.1,N,0.0,0.0
1478379975.9,286047120.1,N,0.0,0.0
1478379995.8,286047125.4,N,0.0,0.0
1478380015.6,286047124.5,N,0.0,0.0
1478380035.4,286047127.1,N,0.0,0.0
1478380055.3,286047125.4,N,0.0,0.0
1478380075.1,286047127.6,N,0.0,0.0
1478380076.0,286047127.6,N,0.0,0.0
1478380095.8,286047126.1,N,0.0,0.0
1478380115.7,286047127.6,N,0.0,0.0
1478380135.5,286047127.6,N,0.0,0.0
1478380155.3,286047124.7,N,0.0,0.0
1478380175.2,286047127.6,N,0.0,0.0
1478380195.9,286047127.5,N,0.0,0.0
1478380215.7,286047126.1,N,0.0,0.0
1478380235.6,286047126.9,N,0.0,0.0
1478380255.4,286047127.1,N,0.0,0.0
1478380275.2,286047129.1,N,0.0,0.0
1478380295.0,286047127.9,N,0.0,0.0
1478380295.9,286047127.9,N,0.0,0.0
1478380315.8,286047129.0,N,0.0,0.0
1478380335.6,286047128.5,N,0.0,0.0
1478380355.4,286047128.0,N,0.0,0.0
1478380375.3,286047127.9,N,0.0,0.0
1478380395.1,286047128.4,N,0.0,0.0
1478380415.8,286047128.2,N,0.0,0.0
1478380435.7,286047128.4,N,0.0,0.0
1478380455.5,286047128.3,N,0.0,0.0
1478380475.3,286047128.1,N,0.0,0.0
1478380495.2,286047130.7,N,0.0,0.0
1478380515.9,286047130.5,N,0.0,0.0
1478380535.7,286047129.6,N,0.0,0.0
1478380555.6,286047132.4,N,0.0,0.0
1478380575.4,286047129.6,N,0.0,0.0
1478380595.2,286047129.8,N,0.0,0.0
1478380615.1,286047131.7,N,0.0,0.0
1478380616.0,286047131.7,N,0.0,0.0
1478380635.8,286047131.5,N,0.0,0.0
1478380655.6,286047131.2,N,0.0,0.0
1478380675.5,286047131.8,N,0.0,0.0
1478380695.3,286047131.6,N,0.0,0.0
1478380715.1,286047129.4,N,0.0,0.0
1478380735.8,286047131.1,N,0.0,0.0
1478380755.7,286047134.0,N,0.0,0.0
1478380775.5,286047132.1,N,0.0,0.0
1478380795.3,286047132.1,N,0.0,0.0
1478380815.2,286047131.5,N,0.0,0.0
1478380835.9,286047132.1,N,0.0,0.0
1478380855.7,286047131.3,N,0.0,0.0
1478380875.6,286047131.1,N,0.0,0.0
1478380895.4,286047134.0,N,0.0,0.0
1478380915.2,286047131.4,N,0.0,0.0
1478380935.1,286047135.9,N,0.0,0.0
1478380936.0,286047135.9,N,0.0,0.0
1478380955.8,286047131.8,N,0.0,0.0
1478380975.6,286047132.6,N,0.0,0.0
1478380995.5,286047133.0,N,0.0,0.0
1478381015.3,286047129.7,N,0.0,0.0
1478381035.1,286047135.9,N,0.0,0.0
1478381055.9,286047136.8,N,0.0,0.0
1478381075.7,286047136.0,N,0.0,0.0
1478381095.5,286047133.3,N,0.0,0.0
1478381115.3,286047136.4,N,0.0,0.0
1478381135.2,286047137.0,N,0.0,0.0
1478381155.0,286047138.3,N,0.0,0.0
1478381155.9,286047138.3,N,0.0,0.0
1478381175.7,286047139.6,N,0.0,0.0
1478381195.6,286047139.8,N,0.0,0.0
1478381215.4,286047140.0,N,0.0,0.0
1478381235.2,286047137.9,N,0.0,0.0
1478381255.1,286047137.3,N,0.0,0.0
1478381256.0,286047137.3,N,0.0,0.0
1478381275.8,286047139.8,N,0.0,0.0
1478381295.6,286047141.8,N,0.0,0.0
1478381315.5,286047137.6,N,0.0,0.0
1478381335.3,286047137.5,N,0.0,0.0
1478381355.1,286047138.1,N,0.0,0.0
1478381375.9,286047139.9,N,0.0,0.0
1478381395.7,286047136.1,N,0.0,0.0
1478381415.5,286047138.6,N,0.0,0.0
1478381435.4,286047136.6,N,0.0,0.0
1478381455.2,286047135.8,N,0.0,0.0
1478381475.0,286047138.1,N,0.0,0.0
1478381475.9,286047138.1,N,0.0,0.0
1478381495.8,286047139.9,N,0.0,0.0
1478381515.6,286047138.8,N,0.0,0.0
1478381535.4,286047135.9,N,0.0,0.0
1478381555.3,286047135.7,N,0.0,0.0
1478381575.1,286047140.4,N,0.0,0.0
1478381576.0,286047140.4,N,0.0,0.0
1478381595.8,286047135.7,N,0.0,0.0
1478381615.6,286047140.3,N,0.0,0.0
1478381635.5,286047137.5,N,0.0,0.0
1478381655.3,286047139.2,N,0.0,0.0
1478381675.1,286047139.7,N,0.0,0.0
1478381695.9,286047139.8,N,0.0,0.0
1478381715.7,286047141.9,N,0.0,0.0
1478381735.5,286047141.5,N,0.0,0.0
1478381755.4,286047139.4,N,0.0,0.0
1478381775.2,286047139.0,N,0.0,0.0
1478381795.0,286047139.2,N,0.0,0.0
1478381795.9,286047139.2,N,0.0,0.0
1478381815.8,286047139.8,N,0.0,0.0
1478381835.6,286047139.2,N,0.0,0.0
1478381855.4,286047139.1,N,0.0,0.0
1478381875.3,286047137.7,N,0.0,0.0
1478381895.1,286047139.8,N,0.0,0.0
1478381896.0,286047139.8,N,0.0,0.0
1478381915.8,286047141.9,N,0.0,0.0
1478381935.7,286047139.7,N,0.0,0.0
1478381955.5,286047140.5,N,0.0,0.0
1478381975.3,286047139.4,N,0.0,0.0
1478381995.2,286047142.0,N,0.0,0.0
1478382015.9,286047141.0,N,0.0,0.0
1478382035.7,286047139.4,N,0.0,0.0
1478382055.5,286047139.4,N,0.0,0.0
1478382075.4,286047139.3,N,0.0,0.0
1478382095.2,286047144.5,N,0.0,0.0
1478382115.0,286047137.5,N,0.0,0.0
1478382115.9,286047137.5,N,0.0,0.0
1478382135.8,286047140.1,N,0.0,0.0
1478382155.6,286047140.1,N,0.0,0.0
1478382175.4,286047142.0,N,0.0,0.0
1478382195.3,286047139.5,N,0.0,0.0
1478382215.1,286047139.1,N,0.0,0.0
1478382235.8,286047139.0,N,0.0,0.0
1478382255.7,286047142.0,N,0.0,0.0
1478382275.5,286047141.7,N,0.0,0.0
1478382295.3,286047139.8,N,0.0,0.0
1478382315.2,286047140.2,N,0.0,0.0
1478382335.9,286047140.4,N,0.0,0.0
1478382355.7,286047141.3,N,0.0,0.0
1478382375.6,286047141.2,N,0.0,0.0
1478382395.4,286047141.2,N,0.0,0.0
1478382415.2,286047137.9,N,0.0,0.0
1478382435.1,286047140.3,N,0.0,0.0
1478382436.0,286047140.3,N,0.0,0.0
1478382455.8,286047146.7,N,0.0,0.0
1478382475.6,286047144.9,N,0.0,0.0
1478382495.4,286047140.9,N,0.0,0.0
1478382515.3,286047142.3,N,0.0,0.0
1478382535.1,286047141.2,N,0.0,0.0
1478382555.8,286047141.0,N,0.0,0.0
1478382575.7,286047143.3,N,0.0,0.0
1478382595.5,286047139.3,N,0.0,0.0
1478382615.3,286047139.1,N,0.0,0.0
1478382635.2,286047141.8,N,0.0,0.0
1478382655.9,286047140.8,N,0.0,0.0
1478382675.7,286047142.0,N,0.0,0.0
1478382695.6,286047138.3,N,0.0,0.0
1478382715.4,286047140.2,N,0.0,0.0
1478382735.2,286047138.5,N,0.0,0.0
1478382755.1,286047143.3,N,0.0,0.0
1478382756.0,286047143.3,N,0.0,0.0
1478382775.8,286047139.0,N,0.0,0.0
1478382795.6,286047134.5,N,0.0,0.0
1478382815.5,286047141.4,N,0.0,0.0
1478382835.3,286047141.9,N,0.0,0.0
1478382855.1,286047141.0,N,0.0,0.0
1478382875.9,286047144.1,N,0.0,0.0
1478382895.7,286047153.3,N,0.0,0.0
1478382915.5,286047141.6,N,0.0,0.0
1478382935.3,286047138.9,N,0.0,0.0
1478382955.2,286047140.4,N,0.0,0.0
1478382975.0,286047141.5,N,0.0,0.0
1478382975.9,286047141.5,N,0.0,0.0
1478382995.7,286047138.9,N,0.0,0.0
1478383015.6,286047229.6,Y,0.0,0.0
1478383035.4,286047024.2,N,0.0,0.0
1478383055.2,286047030.8,N,0.0,0.0
1478383075.1,286047026.6,N,0.0,0.0
1478383076.0,286047026.6,N,0.0,0.0
1478383095.8,286047029.9,N,0.0,0.0
1478383115.6,286047029.7,N,0.0,0.0
1478383135.5,286047028.9,N,0.0,0.0
1478383155.3,286047029.9,N,0.0,0.0
1478383175.1,286047031.5,N,0.0,0.0
1478383195.9,286047028.5,N,0.0,0.0
